LiveATC.Net - Listen to live air traffic control over the Internet!


ICAO: PASO  IATA: SOV   Airport: Seldovia Airport
City: Seldovia   State/Province: Alaska
Country: United States   Continent: North America
PASO METAR Weather: PASO 291053Z AUTO 18003KT 10SM BKN095 OVC120 M14/M16 A2960 RMK AO2 SLP022 T11391156 TSNO
PASO Flight Activity (FlightAware)
PASO Airport Info   (iFlightPlanner)
PASO VFR Sectional Chart   (iFlightPlanner) 
PASO IFR Low Altitude Chart   (iFlightPlanner) 
PASO IFR High Altitude Chart   (iFlightPlanner) 

Kachemak Bay CTAF
Feed Status: UP   Listeners: 0
Listen in your browser - HTML5 player (in browser, HTML5)
Click here to listen with your own player (launches your MP3 player)
Archive Access: Kachemak Bay CTAF
FacilityFrequency
Kachemak Bay CTAF122.900

NOTICE

Unauthorized use prohibited. See LiveATC.net Terms of Service


Airport/ARTCC Code
Frequency Search
(e.g., 124.400, 128.75)
Site-wide search
 


Browse Feeds
Top 50 Feeds
HF Oceanic Feeds
Coverage Map
Bad Weather Areas

LiveATC FAQ
Offer LiveATC feed
Contact LiveATC.net
Press Inquiries

LiveATC on iPhone
LiveATC on Android

Windows Phone
Windows 8/10

LiveATC Mobile
(Mobile browser)

ATC Audio Archives
Interesting Recordings

LiveATC Forums


Home Page
About LiveATC.net
Make a Donation
Terms of Use
Privacy Policy

Canadian Air Freqs

AIRMETs/SIGMETs

FAA Airport Status
NAS Status
Arrival Demand


Server Software By:
Icecast.org
Liquidsoap